www.pogodaiklimat.ru

Погода и климат >> Архив погоды >> Казахстан >> Астана


АРХИВ ПОГОДЫ в Астане

Время (UTC), дата Ветер
(напр.,м/с)
 
Видим.   Явления Облачность Т
(С)
Тd
(С)
f
(%)
Тe
(С)
Тes
(С)
Комфортность P
(гПа)
Po
(гПа)
Тmin
(С)
Tmax
(С)
R
(мм)
R24
(мм)
S
(см)
15 18.04 штиль 0 н/о ясно +11.8 +1.7 50 +12 +12 тепло 1025.4 983.6 +16.6
18 18.04 Ю 1 н/о ясно +9.6 +2.0 59 +9 +9 тепло 1025.4 983.3 +16.6
21 18.04 Ю 1 н/о ясно +8.2 +0.7 59 +8 +8 тепло 1024.9 982.6
00 19.04 Ю 1 10 км ясно +5.8 +1.0 71 +5 +5 тепло 1025.1 982.5
03 19.04 Ю 2 10 км 1/0
[Ci fib]
+9.8 +1.9 58 +9 +13 тепло 1024.6 982.6
06 19.04 ЮЗ 3 10 км 1/0
[Ci fib]
+16.6 +1.5 36 +16 +27 тепло 1022.8 981.8 +5.4
09 19.04 З 2 10 км 10/0
[Ac lent Ci fib]
+19.2 +2.1 32 +20 +25 тепло 1021.3 980.7
12 19.04 З 3 10 км 6/6 1000 м
[Sc]
+18.9 +3.1 35 +19 +20 тепло 1020.6 980.0
15 19.04 С 1 н/о 6/6 1000 м
[Sc]
+15.2 +5.7 53 +16 +16 тепло 1021.6 980.5 +19.9
18 19.04 штиль 0 н/о дым 4/4 1000 м
[Sc]
+11.1 +5.2 67 +11 +11 тепло 1022.4 980.7 +19.9
21 19.04 В 1 н/о дым 3/0
[Ci fib]
+10.8 +5.6 70 +11 +11 тепло 1022.5 980.7
00 20.04 В 1 10 км ясно +10.0 +5.2 72 +10 +10 тепло 1023.1 981.2
03 20.04 В 1 10 км ясно +15.3 +5.5 52 +16 +21 тепло 1022.5 981.4
06 20.04 В 3 10 км ясно +18.8 +4.6 39 +19 +30 тепло 1021.8 981.2 +9.7
09 20.04 СВ 3 10 км 8/8
[Sc diur, vesp]
+20.9 +4.0 33 +22 +24 комфорт 1020.3 980.0
12 20.04 В 4 10 км 4/4 1000 м
[Sc diur, vesp]
+19.2 +3.0 34 +19 +21 тепло 1019.6 979.1
15 20.04 В 2 н/о ясно +15.7 +4.1 46 +16 +16 тепло 1019.9 978.9 +21.4
18 20.04 В 2 н/о ясно +13.7 +2.6 47 +13 +13 тепло 1020.0 978.7 +21.4
21 20.04 В 3 н/о ясно +11.6 +1.5 50 +10 +10 тепло 1018.7 977.2
00 21.04 ЮВ 2 10 км ясно +9.7 +1.6 57 +8 +8 тепло 1017.3 975.6
03 21.04 ЮВ 3 10 км ясно +12.4 +2.6 51 +11 +15 тепло 1015.8 974.5
06 21.04 ЮВ 3 10 км ясно +17.5 +4.1 41 +18 +28 тепло 1013.1 972.6 +9.3
09 21.04 Ю 3 10 км 10/0
[Ci]
+20.1 +3.3 33 +21 +29 комфорт 1009.5 969.5
12 21.04 В 1 10 км 10/0
[Ac und]
+20.5 +4.1 34 +22 +23 комфорт 1006.6 966.8
15 21.04 Ю 1 10 км в посл. час ливневой дождь 10/9 300 м
[Cb cap Ac und]
+14.6 +7.6 63 +15 +15 тепло 1006.5 965.9 +21.0
18 21.04 ЮЗ 1 н/о в посл. час ливневой дождь 10/9 300 м
[Cb cap Ac und]
+14.2 +7.9 66 +15 +15 тепло 1005.5 964.9 +21.0 0.1
21 21.04 Ю 1 н/о в посл. час ливневой дождь 9/8 300 м
[Cb cap Ac As]
+12.1 +8.6 79 +12 +12 тепло 1004.1 963.3
00 22.04 Ю 2 10 км {ливн. осадки} 10/8 300 м
[Cb cap Ac und]
+10.7 +9.1 90 +9 +9 тепло 1003.8 962.8
03 22.04 З 2 10 км 9/8 300 м
[Sc Ac cuf]
+12.5 +10.0 85 +12 +12 тепло 1005.4 964.6
06 22.04 З 5 10 км 9/8 300 м
[Sc Ac cuf]
+13.8 +8.8 72 +12 +13 тепло 1009.2 968.4 +10.0 2
09 22.04 СЗ 4 10 км 3/3 1000 м
[Cu med, cong]
+14.1 +3.6 49 +13 +19 тепло 1012.2 971.3
12 22.04 З 4 10 км ясно +11.4 -3.5 35 +10 +12 по сезону 1015.7 974.2
15 22.04 З 3 10 км ясно +7.8 -2.5 48 +6 +6 по сезону 1019.4 977.3 +14.5
18 22.04 штиль 0 н/о ясно +4.7 -0.9 67 +4 +4 по сезону 1021.6 978.9 +14.5
21 22.04 штиль 0 н/о ясно +2.7 -0.4 80 +2 +2 по сезону 1021.9 978.9
00 23.04 штиль 0 10 км ясно +1.7 -0.7 84 +1 +1 по сезону 1022.2 979.0
03 23.04 Ю 4 10 км 10/8 1000 м
[Sc Ac und]
+7.1 -1.1 56 +4 +4 по сезону 1019.1 976.9
06 23.04 Ю 2 10 км 10/4 1000 м
[Sc Ac und]
+10.9 -0.3 46 +10 +12 по сезону 1015.8 974.3 +1.2
09 23.04 З 8-15
{18}
4000 м слабый ливневой дождь со снегом 10/10 1000 м
[Cb cap]
+10.0 +3.5 64 +6 +6 прохладно 1014.3 972.7
12 23.04 З 7 10 км {ливн. осадки} 9/9 1260 м
[Cb cap]
+10.2 +1.3 54 +7 +7 холодно 1015.9 974.3
15 23.04 ЮЗ 4 10 км 3/3 1000 м
[Sc]
+9.7 +1.6 57 +7 +7 по сезону 1016.3 974.6 +18.0
18 23.04 ЮЗ 4 н/о 10/10 1050 м
[Sc]
+9.3 +2.8 64 +7 +7 по сезону 1017.1 975.3 +18.0 1
21 23.04 З 5 н/о 10/10 840 м
[Sc]
+7.0 +2.7 74 +3 +3 по сезону 1018.9 976.7
00 24.04 З 5 10 км ясно +5.6 +1.7 76 +1 +1 по сезону 1020.4 977.9
03 24.04 З 4 10 км ясно +7.4 +2.5 71 +4 +7 по сезону 1022.8 980.5
06 24.04 З 4 10 км 3/0
[Ci fib]
+11.5 +2.0 52 +10 +18 по сезону 1022.7 981.0 +5.4
09 24.04 З 3 10 км 8/0
[Ci fib]
+14.6 +2.2 43 +14 +22 тепло 1023.1 981.8
12 24.04 Ю 3 10 км 8/0
[Ci]
+15.4 +1.2 38 +15 +17 тепло 1022.9 981.7
15 24.04 ЮЗ 1 10 км 4/0
[Ci fib]
+12.5 +1.8 48 +13 +13 тепло 1023.4 981.8 +16.7
18 24.04 ЮВ 1 н/о ясно +11.7 +2.2 52 +12 +12 тепло 1023.4 981.7 +16.7
21 24.04 ЮВ 1 н/о ясно +11.4 +1.4 50 +12 +12 тепло 1022.7 981.0
00 25.04 Ю 1 10 км ясно +9.4 +1.1 56 +9 +9 тепло 1022.5 980.5
03 25.04 В 1 10 км ясно +12.5 +2.6 51 +13 +18 тепло 1021.9 980.4
06 25.04 Ю 2 10 км 8/0
[Ci fib]
+22.0 +2.7 28 +22 +33 комфорт 1019.8 979.7 +9.1
09 25.04 ЮВ 2 10 км 3/0
[Ci fib]
+25.0 +0.5 20 +24 +35 комфорт 1018.0 978.3
12 25.04 ЮЗ 3 10 км ясно +25.2 +0.7 20 +24 +27 комфорт 1016.5 976.9

 

Местоположение метеостанции Астана (город Астана, Казахстан): широта 51.13 долгота 71.37 высота над уровнем моря 350 м.

В архиве по умолчанию представлена погода в Астане за последнюю неделю. Архивные данные за месяц целиком и за предыдущие месяцы, начиная с января 2011 года, Вы можете получить, выбрав интересующий диапазон дат из раскрывающегося списка и нажав кнопку "Ввод!".

Внимание! Время в таблицах - всемирное. Для получения местного времени необходимо прибавить поправку, которая в Астане равна 6 ч.

Смотрите также архив погоды в соседних городах и на ближайших метеорологических станциях:

Погода в Астане 2 (город Астана, Казахстан) (4 км)
Погода в Арнасае (Акмолинская область, Казахстан) (51 км)
Погода в Шортанды (Акмолинская область, Казахстан) (65 км)
Погода в Аршалы (Акмолинская область, Казахстан) (73 км)
Погода в Новомарковке (Акмолинская область, Казахстан) (92 км)
Погода в Киевке (Карагандинская область, Казахстан) (99 км)
Погода в Акколе (Акмолинская область, Казахстан) (101 км)
Погода в Осакаровке (Карагандинская область, Казахстан) (105 км)
Погода в Кургальджин (Акмолинская область, Казахстан) (114 км)
Погода в Жалтыре (Акмолинская область, Казахстан) (122 км)

Пояснения к столбцам:

Ветер - указаны скорость ветра в м/с - средняя за 10 мин, порывы в срок и между сроками (в фигурных скобках) и направление, откуда дует ветер: С - северный, СВ - северо-восточный, В - восточный, ЮВ - юго-восточный, Ю - южный, ЮЗ - юго-западный, З - западный, СЗ - северо-западный.
Видимость - горизонтальная дальность видимости в метрах или километрах. При видимости от 1 до 10 км при отсутствии осадков обычно наблюдается дымка, при ухудшении видимости до 1 км и менее - туман. В сухую погоду видимость может ухудшаться дымом, пылью или мглою.
Явления - указаны атмосферные явления, наблюдавшиеся в срок или в последний час перед сроком; фигурными скобками обозначены явления, наблюдавшиеся между сроками (за 1-3 часа до срока); квадратными скобками обозначены град или гололедные отложения с указанием их диаметра в мм.
Облачность - указаны через наклонную черту общая и нижняя облачность в баллах и высота нижней границы облаков в метрах; квадратными скобками обозначены формы облаков: Ci - перистые, Cs - перисто-слоистые, Cc - перисто-кучевые, Ac - высококучевые, As - высокослоистые, Sc - слоисто-кучевые, Ns - слоисто-дождевые, Cu - кучевые, Cb - кучево-дождевые. Подробнее классификацию облаков см. в Атласе облаков (PDF).
T - Температура воздуха - температура, измеренная на высоте 2 м над землей.
Td - Температура точки росы - температура, при понижении до которой содержащийся в воздухе водяной пар достигнет насыщения.
f - Относительная влажность воздуха - влажноcть воздуха, измеренная на высоте 2 м над землей.
Te - Эффективная температура - температура, которую ощущает одетый по сезону человек в тени. Характеристика душности погоды. При расчете учитывается влияние влажности воздуха и скорости ветра на теплоощущения человека.
Tes - Эффективная температура на солнце - температура, которую ощущает человек, с поправкой на солнечный нагрев. Характеристика знойности погоды. Зависит от высоты солнца над горизонтом, облачности и скорости ветра. Ночью, в пасмурную погоду, а также при ветре 12 м/с и более поправка равна нулю.
P - Атмосферное давление - приведенное к уровню моря атмосферное давление.
Po - Атмосферное давление - измеренное на уровне метеостанции атмосферное давление.
Tmin - Минимальная температура - минимум температуры воздуха на высоте 2 м над землей.
Tmax - Максимальная температура - максимум температуры воздуха на высоте 2 м над землей.
R - Количество осадков - Количество выпавших осадков за период времени, мм. При наведении курсора мыши на число - период времени, за который выпало указанное количество осадков.
R24 - Количество осадков - Количество выпавших осадков за 24 часа, мм.
S - Снежный покров - Высота снежного покрова, см. При наведении курсора мыши на число - состояние снежного покрова и степень покрытия местности в баллах.